Regional Weather Roundup
Issued by NWS

Home | Current Version | Previous Version | Text Only | Print | Product List | Glossary On
Versions: 1 2 3 4 5 6 7 8 9 10 11 12 13 14 15 16 17 18 19 20 21 22 23 24 25 26 27 28 29 30 31 32 33 34 35 36 37 38 39 40 41 42 43 44 45 46 47 48 49 50
000
ASUS43 KDTX 260610
RWRMI
MICHIGAN HOURLY REGIONAL WEATHER ROUNDUP
NATIONAL WEATHER SERVICE DETROIT/PONTIAC MI
200 AM EDT WED APR 26 2017

NOTE: "FAIR" INDICATES FEW OR NO CLOUDS BELOW 12,000 FEET WITH NO
SIGNIFICANT WEATHER AND/OR OBSTRUCTION TO VISIBILITY.

MIZ047>049-052>055-059>063-066>070-074>076-081>083-260700-
SOUTHEAST LOWER MICHIGAN

CITY           SKY/WX    TMP DP  RH WIND       PRES   REMARKS
ADRIAN         CLEAR     52  50  93 E5        29.71F
6HR MIN TEMP:  51; 6HR MAX TEMP:  63;

ALMA           PTCLDY    59  54  82 S6        29.68F
ANN ARBOR      CLEAR     56  52  86 E6        29.72S
BAD AXE        MOCLDY    55  51  87 SE8       29.75S
6HR MIN TEMP:  53; 6HR MAX TEMP:  61;

CARO           CLOUDY    58  53  84 SE10      29.72F
DETROIT        MOCLDY    55  51  86 E5        29.74S
6HR MIN TEMP:  55; 6HR MAX TEMP:  64;

FLINT          PTCLDY    57  51  80 SE12      29.71F
6HR MIN TEMP:  57; 6HR MAX TEMP:  67;

GROSSE ILE     CLEAR     54  51  89 E5        29.73S
6HR MIN TEMP:  54; 6HR MAX TEMP:  59;

HILLSDALE      CLEAR     55  52  88 SE10      29.67F
HOWELL         CLEAR     57  51  79 SE10      29.70F
6HR MIN TEMP:  57; 6HR MAX TEMP:  67;


CITY           SKY/WX    TMP DP  RH WIND       PRES   REMARKS
JACKSON        CLEAR     57  52  83 SE9       29.68F
6HR MIN TEMP:  56; 6HR MAX TEMP:  68;

LAMBERTVILLE   CLEAR     52  51  95 E3        29.71F
6HR MIN TEMP:  51; 6HR MAX TEMP:  56;

LANSING        CLEAR     60  51  72 SE14      29.67F
6HR MIN TEMP:  60; 6HR MAX TEMP:  70;

LAPEER         FAIR      56  51  84 SE10      29.75S
6HR MIN TEMP:  56; 6HR MAX TEMP:  64;

MASON          CLEAR     59  53  82 SE12      29.69F
MONROE         CLEAR     56  52  88 E8        29.72S
6HR MIN TEMP:  53; 6HR MAX TEMP:  57;

MT. CLEMENS    PTCLDY    51  51 100 E5        29.74S
6HR MIN TEMP:  51; 6HR MAX TEMP:  61;

PONTIAC        CLOUDY    54  50  86 SE8       29.73S
6HR MIN TEMP:  54; 6HR MAX TEMP:  65;

PORT HOPE        N/A     53  50  89 SE12      29.73F
6HR MIN TEMP:  51; 6HR MAX TEMP:  58;

PORT HURON     CLOUDY    54  50  87 SE6       29.76F
TRI CITIES     CLOUDY    59  54  83 SE8       29.70F
6HR MIN TEMP:  59; 6HR MAX TEMP:  69;

MIDLAND        CLOUDY    62  51  69 SE6       29.70S
6HR MIN TEMP:  58; 6HR MAX TEMP:  65;

TROY           CLOUDY    55  50  85 NE3       29.77S
SAGINAW HB     CLOUDY    59  50  72 SE7       29.70F
$$
MIZ043>046-050>051-056>058-064>065-071>073-077>080-260700-
SOUTHWEST LOWER MICHIGAN

CITY           SKY/WX    TMP DP  RH WIND       PRES   REMARKS
BATTLE CREEK   CLOUDY    60  53  77 SE6       29.67R
6HR MIN TEMP:  60; 6HR MAX TEMP:  71;

BENTON HARBOR  CLOUDY    64  54  69 SE7       29.60F
6HR MIN TEMP:  62; 6HR MAX TEMP:  71;

BIG RAPIDS     CLOUDY    60  53  75 SE7       29.65F
6HR MIN TEMP:  60; 6HR MAX TEMP:  67;

COLDWATER      MOCLDY    59  53  80 S6        29.66S
6HR MIN TEMP:  57; 6HR MAX TEMP:  70;

FREMONT        FAIR      64  51  64 SE10      29.62F
HOLLAND        CLOUDY    64  54  69 SE9       29.62S
6HR MIN TEMP:  62; 6HR MAX TEMP:  70;

GRAND RAPIDS   CLOUDY    62  55  77 E10       29.64F
6HR MIN TEMP:  61; 6HR MAX TEMP:  70;

IONIA          FAIR      59  53  79 SE9       29.66S
6HR MIN TEMP:  59; 6HR MAX TEMP:  68;

KALAMAZOO      CLOUDY    61  51  70 SE3       29.65F
6HR MIN TEMP:  61; 6HR MAX TEMP:  72;

LUDINGTON      CLOUDY    60  55  83 E6        29.60F
6HR MIN TEMP:  56; 6HR MAX TEMP:  65;

MARSHALL       CLOUDY    59  54  83 SE8       29.66F
6HR MIN TEMP:  58; 6HR MAX TEMP:  71;

MOUNT PLEASANT CLOUDY    60  52  74 SE7       29.68F
6HR MIN TEMP:  57; 6HR MAX TEMP:  67;

MUSKEGON       CLOUDY    65  55  70 SE10      29.61F
6HR MIN TEMP:  62; 6HR MAX TEMP:  71;

SOUTH HAVEN    CLOUDY    63  55  74 SE6       29.61F
$$
MIZ016>042-260700-
NORTHERN LOWER MICHIGAN

CITY           SKY/WX    TMP DP  RH WIND       PRES   REMARKS
ALPENA         FOG       46  46 100 E6        29.76S VSB 1
6HR MIN TEMP:  44; 6HR MAX TEMP:  47;

BEAVER ISLAND  CLOUDY    43  42  95 E10       29.69F
6HR MIN TEMP:  42; 6HR MAX TEMP:  43;

BELLAIRE       CLOUDY    60  52  74 CALM      29.68S
6HR MIN TEMP:  59; 6HR MAX TEMP:  69;

CADILLAC       CLOUDY    59  53  80 E9        29.66F
CHARLEVOIX     CLOUDY    59  50  73 E9        29.71S
6HR MIN TEMP:  58; 6HR MAX TEMP:  63;

FRANKFORT      MOCLDY    64  52  64 SE7       29.62F
GAYLORD        CLOUDY    58  50  75 SE7       29.71S
6HR MIN TEMP:  58; 6HR MAX TEMP:  66;

GRAYLING       CLOUDY    58  52  79 SE7       29.72S
6HR MIN TEMP:  57; 6HR MAX TEMP:  64;

HARBOR SPRINGS CLOUDY    50  47  90 E7        29.71S
HOUGHTON LAKE  CLOUDY    59  52  77 E7        29.71S
6HR MIN TEMP:  59; 6HR MAX TEMP:  65;

MANISTEE       CLOUDY    62  54  74 E8        29.61F
OSCODA         CLOUDY    48  46  95 W3        29.74S FOG
6HR MIN TEMP:  47; 6HR MAX TEMP:  53;

PELLSTON       CLOUDY    45  42  89 CALM      29.72F
6HR MIN TEMP:  44; 6HR MAX TEMP:  49;

ROGERS CITY    FOG       46  44  95 E3        29.75F VSB 1
TRAVERSE CITY  CLOUDY    55  46  71 CALM      29.64F
6HR MIN TEMP:  52; 6HR MAX TEMP:  61;

$$
MIZ007>008-015-260700-
EASTERN UPPER MICHIGAN

CITY           SKY/WX    TMP DP  RH WIND       PRES   REMARKS
KINROSS        FOG       47  46  97 E10       29.75S VSB 1/2
6HR MIN TEMP:  45; 6HR MAX TEMP:  47; 6HR PCP: TRACE;

MACKINAC ISLAN SNOW      41  41 100 E14G25    29.73S VSB 1/4
6HR MIN TEMP:  41; 6HR MAX TEMP:  42;

NEWBERRY       LGT RAIN  48  47  97 E6        29.71F
6HR MIN TEMP:  47; 6HR MAX TEMP:  55; 6HR PCP:  0.01;

S. S. MARIE    FOG       50  49  96 E6        29.76R VSB 1
6HR MIN TEMP:  50; 6HR MAX TEMP:  51;

MUNISING         N/A     51  50  96 S5        29.69R
6HR MIN TEMP:  51; 6HR MAX TEMP:  63; 6HR PCP:  0.04;

$$
MIZ004>006-011>014-085-260700-
CENTRAL UPPER MICHIGAN

CITY           SKY/WX    TMP DP  RH WIND       PRES   REMARKS
MANISTIQUE     CLOUDY    47  46  98 E8        29.68F
6HR MIN TEMP:  47; 6HR MAX TEMP:  51;

ESCANABA       CLOUDY    47  45  93 NE9       29.66F
6HR MIN TEMP:  46; 6HR MAX TEMP:  54; 6HR PCP: TRACE;

MENOMINEE      CLOUDY    47  42  83 NE10      29.61F
6HR MIN TEMP:  47; 6HR MAX TEMP:  61; 6HR PCP: TRACE;

SAWYER-GWINN   LGT RAIN  49  47  94 NE7       29.68F
6HR MIN TEMP:  48; 6HR MAX TEMP:  59; 6HR PCP:  0.02;

$$
MIZ001>003-009>011-084-260700-
WESTERN UPPER MICHIGAN

CITY           SKY/WX    TMP DP  RH WIND       PRES   REMARKS
IRON MOUNTAIN  CLOUDY    51  47  86 CALM      29.63S
6HR MIN TEMP:  51; 6HR MAX TEMP:  63; 6HR PCP: TRACE;

HOUGHTON       LGT RAIN  35  31  85 N7        29.74S WCI  29
6HR MIN TEMP:  35; 6HR MAX TEMP:  47; 6HR PCP:  0.04;

COPPER HARBOR    N/A     36  33  89 E16G23    29.78S WCI  26
6HR MIN TEMP:  36; 6HR MAX TEMP:  40; 6HR PCP:  0.01;

IRONWOOD       LGT RAIN  33  31  92 NE8       29.71F WCI  26
6HR MIN TEMP:  33; 6HR MAX TEMP:  44; 6HR PCP:  0.10;

$$

ABBREVIATIONS USED IN REMARKS
   TC - TEMPERATURE IN CELSIUS
  WCI - WIND CHILL INDEX
   HX - HEAT INDEX
  VSB - VISIBILITY





USA.gov is the U.S. government's official web portal to all federal, state and local government web resources and services.